EUTELSAT QUANTUM

Last updated on Thu Sep 24 2026 00:03:20 GMT+0000 (Coordinated Universal Time)

1 49056U 21069B 26266.58818712 .00000000 00000+0 00000+0 0 9992 2 49056 0.0150 160.8647 0002359 24.8735 76.1464 1.00270520 18916
UTC large
Height (km)
Speed (km/s)
/
Latitude / Longitude
Inclination (degrees)
Orbital Period (minutes)
Azimuth
Elevation
Range (km)
Doppler Factor

Next 0 passes for location: London (51.5072 / 0.1276)

No passes found over London.
EUTELSAT QUANTUM